Flag for Switzerland Weather past 2 weeks in Zürich, Zurich, Switzerland

Now
60 °F

Cool.


Feels Like: 60 °F
Forecast: 39 / 66 °F
Wind: 3 mph from East

Location: Zurich Town / Ville.

Current Time: Sep 1, 2014 at 4:19:22 PM

Latest Report: Sep 1, 2014 at 3:00 PM


Visibility: N/A

Pressure: 30.12 "Hg

Humidity: 69%

Dew point: 50 °F

Location of ZürichLocation

Historic Weather in Zürich — Graph

°F

Zürich temperature yesterday

Maximum temperature yesterday: 64 °F (at 12:00 PM)
Minimum temperature yesterday: 53 °F (at 8:00 PM)
Average temperature yesterday: 58 °F

Past Weeks' High & Low Weather Summary

 TemperatureHumidityPressure
High74 °F (Aug 28, 5:00 PM)98% (Aug 19, 8:00 AM)30.20 "Hg (Aug 19, 8:00 AM)
Low49 °F (Aug 24, 6:00 AM)42% (Aug 21, 4:00 PM)29.77 "Hg (Aug 26, 7:00 PM)
Average59 °F77%30.01 "Hg
* Reported Aug 17 3:00 PM — Sep 1 3:00 PM, Zürich, Weather by CustomWeather, © 2014

Note: Actual official high and low records may vary slightly from our data, if they occured in-between our weather recording intervals... More about our weather records

Advertising

Zürich weather history for previous 24 hours

 ConditionsComfort  
Time TempWeatherWind HumidityBarometerVisibility
3:00 PM
Sep 1
60 °FCool.3 mph69%30.12 "HgN/A
2:00 PM57 °FOvercast.3 mph74%30.13 "HgN/A
1:00 PM58 °FCool.3 mph72%30.13 "HgN/A
12:00 PM59 °FCool.3 mph72%30.12 "HgN/A
11:00 AM56 °FCool.7 mph80%30.13 "HgN/A
10:00 AM54 °FCool.2 mph89%30.14 "HgN/A
9:00 AM53 °FCool.2 mph94%30.13 "HgN/A
8:00 AM52 °FOvercast.2 mph94%30.12 "HgN/A
7:00 AM52 °FCool.2 mph95%30.10 "HgN/A
6:00 AM51 °FCool.1 mph95%30.09 "HgN/A
5:00 AM51 °FCool.3 mph96%30.09 "HgN/A
4:00 AM52 °FCool.3 mph95%30.08 "HgN/A
3:00 AM52 °FCool.2 mph96%30.07 "HgN/A
2:00 AM53 °FCool.6 mph96%30.06 "HgN/A
1:00 AM53 °FCool.3 mph95%30.06 "HgN/A
12:00 AM53 °FCool.3 mph95%30.06 "HgN/A
10:00 PM
Aug 31
53 °FCool.2 mph96%30.08 "HgN/A
9:00 PM53 °FCool.2 mph93%30.07 "HgN/A
8:00 PM53 °FOvercast.2 mph95%30.06 "HgN/A
7:00 PM53 °FCool.5 mph94%30.05 "HgN/A
6:00 PM53 °FCool.3 mph96%30.05 "HgN/A
5:00 PM53 °FCool.5 mph93%30.04 "HgN/A
4:00 PM54 °FCool.8 mph91%30.03 "HgN/A
Weather by CustomWeather, © 2014

See weather overviewHow to use our weather pages